Location: Peterborough
(44.3091°N, 78.3197°W)
Time: 06:16:11
(UTC-04:00)

Vanguard 3 - Pass Details

Date: 26 March 2023
Orbit: 507 x 3246 km, 33.4° (Epoch: 04 June)

Event Time Altitude Azimuth Distance (km) Brightness Sun altitude
Rises 09:57:06 0° 278° (W) 7,021 11.4 28.8°
Reaches altitude 10° 10:03:06 10° 269° (W) 5,719 11.1 29.8°
Maximum altitude 10:15:37 28° 220° (SW) 3,523 10.5 31.7°
Drops below altitude 10° 10:24:17 10° 167° (SSE) 3,863 11.4 33.0°
Sets 10:27:26 0° 155° (SSE) 4,475 11.7 33.5°
